owner,sensor,date,latitude,longitude,vertical_datum,wind_speed,wind_to_direction,wind_speed_of_gust,qcFlag 
DISL,ioos:station:DISL:MBLA:1,2007-10-01T00:00:00Z,30.4367,-88.0117,14.2,5.6,135.0,99.0,'11111222,11111222,11144222' 
DISL,ioos:station:DISL:MBLA:1,2007-10-01T00:30:00Z,30.4367,-88.0117,14.2,5.6,123.0,99.0,'11111222,11111222,11144222' 
DISL,ioos:station:DISL:MBLA:1,2007-10-01T01:00:00Z,30.4367,-88.0117,14.2,4.6,112.0,99.0,'11111222,11111222,11144222' 
DISL,ioos:station:DISL:MBLA:1,2007-10-01T01:30:00Z,30.4367,-88.0117,14.2,3.8,106.0,99.0,'11111222,11111222,11144222' 
DISL,ioos:station:DISL:MBLA:1,2007-10-01T02:00:00Z,30.4367,-88.0117,14.2,3.5,89.0,99.0,'11111222,11111222,11144222' 
DISL,ioos:station:DISL:MBLA:1,2007-10-01T02:30:00Z,30.4367,-88.0117,14.2,4.4,83.0,99.0,'11111222,11111222,11144222' 
DISL,ioos:station:DISL:MBLA:1,2007-10-01T03:00:00Z,30.4367,-88.0117,14.2,5.5,84.0,99.0,'11111222,11111222,11144222' 
DISL,ioos:station:DISL:MBLA:1,2007-10-01T03:30:00Z,30.4367,-88.0117,14.2,5.5,76.0,99.0,'11111222,11111222,11144222' 
DISL,ioos:station:DISL:MBLA:1,2007-10-01T04:00:00Z,30.4367,-88.0117,14.2,5.7,64.0,99.0,'11111222,11111222,11144222' 
DISL,ioos:station:DISL:MBLA:1,2007-10-01T04:30:00Z,30.4367,-88.0117,14.2,8.5,80.0,99.0,'11111222,11111222,11144222' 
DISL,ioos:station:DISL:MBLA:1,2007-10-01T05:00:00Z,30.4367,-88.0117,14.2,8.8,82.0,99.0,'11111222,11111222,11144222' 
DISL,ioos:station:DISL:MBLA:1,2007-10-01T05:30:00Z,30.4367,-88.0117,14.2,9.2,82.0,99.0,'11111222,11111222,11144222' 
DISL,ioos:station:DISL:MBLA:1,2007-10-01T06:00:00Z,30.4367,-88.0117,14.2,9.3,90.0,99.0,'11111222,11111222,11144222' 
DISL,ioos:station:DISL:MBLA:1,2007-10-01T06:30:00Z,30.4367,-88.0117,14.2,8.7,81.0,99.0,'11111222,11111222,11144222' 
DISL,ioos:station:DISL:MBLA:1,2007-10-01T07:00:00Z,30.4367,-88.0117,14.2,9.3,82.0,99.0,'11111222,11111222,11144222' 
DISL,ioos:station:DISL:MBLA:1,2007-10-01T07:30:00Z,30.4367,-88.0117,14.2,9.8,80.0,99.0,'11111222,11111222,11144222' 
DISL,ioos:station:DISL:MBLA:1,2007-10-01T08:00:00Z,30.4367,-88.0117,14.2,10.2,83.0,99.0,'11111222,11111222,11144222' 
DISL,ioos:station:DISL:MBLA:1,2007-10-01T08:30:00Z,30.4367,-88.0117,14.2,10.2,87.0,99.0,'11111222,11111222,11144222' 
DISL,ioos:station:DISL:MBLA:1,2007-10-01T09:00:00Z,30.4367,-88.0117,14.2,9.6,82.0,99.0,'11111222,11111222,11144222' 
DISL,ioos:station:DISL:MBLA:1,2007-10-01T09:30:00Z,30.4367,-88.0117,14.2,9.7,84.0,99.0,'11111222,11111222,11144222' 
DISL,ioos:station:DISL:MBLA:1,2007-10-01T10:00:00Z,30.4367,-88.0117,14.2,9.4,86.0,99.0,'11111222,11111222,11144222' 
DISL,ioos:station:DISL:MBLA:1,2007-10-01T10:30:00Z,30.4367,-88.0117,14.2,9.5,84.0,99.0,'11111222,11111222,11144222' 
DISL,ioos:station:DISL:MBLA:1,2007-10-01T11:00:00Z,30.4367,-88.0117,14.2,9.1,82.0,99.0,'11111222,11111222,11144222' 
DISL,ioos:station:DISL:MBLA:1,2007-10-01T11:30:00Z,30.4367,-88.0117,14.2,8.4,83.0,99.0,'11111222,11111222,11144222' 
DISL,ioos:station:DISL:MBLA:1,2007-10-01T12:00:00Z,30.4367,-88.0117,14.2,8.2,89.0,99.0,'11111222,11111222,11144222' 
DISL,ioos:station:DISL:MBLA:1,2007-10-01T12:30:00Z,30.4367,-88.0117,14.2,9.3,84.0,99.0,'11111222,11111222,11144222' 
DISL,ioos:station:DISL:MBLA:1,2007-10-01T13:00:00Z,30.4367,-88.0117,14.2,9.7,80.0,99.0,'11111222,11111222,11144222' 
DISL,ioos:station:DISL:MBLA:1,2007-10-01T13:30:00Z,30.4367,-88.0117,14.2,9.6,84.0,99.0,'11111222,11111222,11144222' 
DISL,ioos:station:DISL:MBLA:1,2007-10-01T14:00:00Z,30.4367,-88.0117,14.2,9.2,84.0,99.0,'11111222,11111222,11144222' 
DISL,ioos:station:DISL:MBLA:1,2007-10-01T14:30:00Z,30.4367,-88.0117,14.2,8.9,84.0,99.0,'11111222,11111222,11144222' 
DISL,ioos:station:DISL:MBLA:1,2007-10-01T15:00:00Z,30.4367,-88.0117,14.2,8.2,86.0,99.0,'11111222,11111222,11144222' 
DISL,ioos:station:DISL:MBLA:1,2007-10-01T15:30:00Z,30.4367,-88.0117,14.2,8.4,82.0,99.0,'11111222,11111222,11144222' 
DISL,ioos:station:DISL:MBLA:1,2007-10-01T16:00:00Z,30.4367,-88.0117,14.2,6.7,73.0,99.0,'11111222,11111222,11144222' 
DISL,ioos:station:DISL:MBLA:1,2007-10-01T16:30:00Z,30.4367,-88.0117,14.2,5.4,59.0,99.0,'11111222,11111222,11144222' 
DISL,ioos:station:DISL:MBLA:1,2007-10-01T17:00:00Z,30.4367,-88.0117,14.2,4.3,57.0,99.0,'11111222,11111222,11144222' 
DISL,ioos:station:DISL:MBLA:1,2007-10-01T17:30:00Z,30.4367,-88.0117,14.2,3.2,17.0,99.0,'11111222,11111222,11144222' 
DISL,ioos:station:DISL:MBLA:1,2007-10-01T18:00:00Z,30.4367,-88.0117,14.2,3.7,359.0,99.0,'11111222,11111222,11144222' 
DISL,ioos:station:DISL:MBLA:1,2007-10-01T18:30:00Z,30.4367,-88.0117,14.2,5.2,353.0,99.0,'11111222,11111222,11144222' 
DISL,ioos:station:DISL:MBLA:1,2007-10-01T19:00:00Z,30.4367,-88.0117,14.2,6.2,356.0,99.0,'11111222,11111222,11144222' 
DISL,ioos:station:DISL:MBLA:1,2007-10-01T19:30:00Z,30.4367,-88.0117,14.2,6.6,354.0,99.0,'11111222,11111222,11144222' 
DISL,ioos:station:DISL:MBLA:1,2007-10-01T20:00:00Z,30.4367,-88.0117,14.2,6.8,355.0,99.0,'11111222,11111222,11144222' 
DISL,ioos:station:DISL:MBLA:1,2007-10-01T20:30:00Z,30.4367,-88.0117,14.2,6.5,356.0,99.0,'11111222,11111222,11144222' 
DISL,ioos:station:DISL:MBLA:1,2007-10-01T21:00:00Z,30.4367,-88.0117,14.2,6.0,8.0,99.0,'11111222,11111222,11144222' 
DISL,ioos:station:DISL:MBLA:1,2007-10-01T21:30:00Z,30.4367,-88.0117,14.2,5.8,2.0,99.0,'11111222,11111222,11144222' 
DISL,ioos:station:DISL:MBLA:1,2007-10-01T22:00:00Z,30.4367,-88.0117,14.2,5.9,359.0,99.0,'11111222,11111222,11144222' 
DISL,ioos:station:DISL:MBLA:1,2007-10-01T22:30:00Z,30.4367,-88.0117,14.2,6.3,1.0,99.0,'11111222,11111222,11144222' 
DISL,ioos:station:DISL:MBLA:1,2007-10-01T23:00:00Z,30.4367,-88.0117,14.2,6.4,2.0,99.0,'11111222,11111222,11144222' 
DISL,ioos:station:DISL:MBLA:1,2007-10-01T23:30:00Z,30.4367,-88.0117,14.2,5.9,1.0,99.0,'11111222,11111222,11144222' 
DISL,ioos:station:DISL:MBLA:1,2007-10-02T00:00:00Z,30.4367,-88.0117,14.2,5.3,21.0,99.0,'11111222,11111222,11144222' 
DISL,ioos:station:DISL:MBLA:1,2007-10-02T00:30:00Z,30.4367,-88.0117,14.2,4.5,47.0,99.0,'11111222,11111222,11144222' 
DISL,ioos:station:DISL:MBLA:1,2007-10-02T01:00:00Z,30.4367,-88.0117,14.2,5.3,59.0,99.0,'11111222,11111222,11144222' 
DISL,ioos:station:DISL:MBLA:1,2007-10-02T01:30:00Z,30.4367,-88.0117,14.2,6.3,63.0,99.0,'11111222,11111222,11144222' 
DISL,ioos:station:DISL:MBLA:1,2007-10-02T02:00:00Z,30.4367,-88.0117,14.2,5.8,55.0,99.0,'11111222,11111222,11144222' 
DISL,ioos:station:DISL:MBLA:1,2007-10-02T02:30:00Z,30.4367,-88.0117,14.2,5.9,51.0,99.0,'11111222,11111222,11144222' 
DISL,ioos:station:DISL:MBLA:1,2007-10-02T03:00:00Z,30.4367,-88.0117,14.2,5.3,49.0,99.0,'11111222,11111222,11144222' 
DISL,ioos:station:DISL:MBLA:1,2007-10-02T03:30:00Z,30.4367,-88.0117,14.2,5.8,44.0,99.0,'11111222,11111222,11144222' 
DISL,ioos:station:DISL:MBLA:1,2007-10-02T04:00:00Z,30.4367,-88.0117,14.2,6.0,44.0,99.0,'11111222,11111222,11144222' 
DISL,ioos:station:DISL:MBLA:1,2007-10-02T04:30:00Z,30.4367,-88.0117,14.2,7.4,32.0,99.0,'11111222,11111222,11144222' 
DISL,ioos:station:DISL:MBLA:1,2007-10-02T05:00:00Z,30.4367,-88.0117,14.2,6.7,37.0,99.0,'11111222,11111222,11144222' 
DISL,ioos:station:DISL:MBLA:1,2007-10-02T05:30:00Z,30.4367,-88.0117,14.2,7.7,48.0,99.0,'11111222,11111222,11144222' 
DISL,ioos:station:DISL:MBLA:1,2007-10-02T06:00:00Z,30.4367,-88.0117,14.2,8.3,63.0,99.0,'11111222,11111222,11144222' 
DISL,ioos:station:DISL:MBLA:1,2007-10-02T06:30:00Z,30.4367,-88.0117,14.2,8.3,60.0,99.0,'11111222,11111222,11144222' 
DISL,ioos:station:DISL:MBLA:1,2007-10-02T07:00:00Z,30.4367,-88.0117,14.2,8.1,60.0,99.0,'11111222,11111222,11144222' 
DISL,ioos:station:DISL:MBLA:1,2007-10-02T07:30:00Z,30.4367,-88.0117,14.2,8.8,66.0,99.0,'11111222,11111222,11144222' 
DISL,ioos:station:DISL:MBLA:1,2007-10-02T08:00:00Z,30.4367,-88.0117,14.2,9.2,68.0,99.0,'11111222,11111222,11144222' 
DISL,ioos:station:DISL:MBLA:1,2007-10-02T08:30:00Z,30.4367,-88.0117,14.2,9.3,67.0,99.0,'11111222,11111222,11144222' 
DISL,ioos:station:DISL:MBLA:1,2007-10-02T09:00:00Z,30.4367,-88.0117,14.2,9.4,68.0,99.0,'11111222,11111222,11144222' 
DISL,ioos:station:DISL:MBLA:1,2007-10-02T09:30:00Z,30.4367,-88.0117,14.2,9.3,67.0,99.0,'11111222,11111222,11144222' 
DISL,ioos:station:DISL:MBLA:1,2007-10-02T10:00:00Z,30.4367,-88.0117,14.2,10.1,71.0,99.0,'11111222,11111222,11144222' 
DISL,ioos:station:DISL:MBLA:1,2007-10-02T10:30:00Z,30.4367,-88.0117,14.2,9.9,76.0,99.0,'11111222,11111222,11144222' 
DISL,ioos:station:DISL:MBLA:1,2007-10-02T11:00:00Z,30.4367,-88.0117,14.2,9.2,74.0,99.0,'11111222,11111222,11144222' 
DISL,ioos:station:DISL:MBLA:1,2007-10-02T11:30:00Z,30.4367,-88.0117,14.2,9.0,75.0,99.0,'11111222,11111222,11144222' 
DISL,ioos:station:DISL:MBLA:1,2007-10-02T12:00:00Z,30.4367,-88.0117,14.2,8.4,75.0,99.0,'11111222,11111222,11144222' 
DISL,ioos:station:DISL:MBLA:1,2007-10-02T12:30:00Z,30.4367,-88.0117,14.2,9.0,72.0,99.0,'11111222,11111222,11144222' 
DISL,ioos:station:DISL:MBLA:1,2007-10-02T13:00:00Z,30.4367,-88.0117,14.2,9.3,80.0,99.0,'11111222,11111222,11144222' 
DISL,ioos:station:DISL:MBLA:1,2007-10-02T13:30:00Z,30.4367,-88.0117,14.2,8.9,80.0,99.0,'11111222,11111222,11144222' 
DISL,ioos:station:DISL:MBLA:1,2007-10-02T14:00:00Z,30.4367,-88.0117,14.2,8.6,80.0,99.0,'11111222,11111222,11144222' 
DISL,ioos:station:DISL:MBLA:1,2007-10-02T14:30:00Z,30.4367,-88.0117,14.2,7.8,74.0,99.0,'11111222,11111222,11144222' 
DISL,ioos:station:DISL:MBLA:1,2007-10-02T15:00:00Z,30.4367,-88.0117,14.2,7.6,68.0,99.0,'11111222,11111222,11144222' 
DISL,ioos:station:DISL:MBLA:1,2007-10-02T15:30:00Z,30.4367,-88.0117,14.2,7.7,64.0,99.0,'11111222,11111222,11144222' 
DISL,ioos:station:DISL:MBLA:1,2007-10-02T16:00:00Z,30.4367,-88.0117,14.2,7.3,51.0,99.0,'11111222,11111222,11144222' 
DISL,ioos:station:DISL:MBLA:1,2007-10-02T16:30:00Z,30.4367,-88.0117,14.2,7.0,39.0,99.0,'11111222,11111222,11144222' 
DISL,ioos:station:DISL:MBLA:1,2007-10-02T17:00:00Z,30.4367,-88.0117,14.2,7.2,26.0,99.0,'11111222,11111222,11144222' 
DISL,ioos:station:DISL:MBLA:1,2007-10-02T17:30:00Z,30.4367,-88.0117,14.2,7.5,28.0,99.0,'11111222,11111222,11144222' 
DISL,ioos:station:DISL:MBLA:1,2007-10-02T18:00:00Z,30.4367,-88.0117,14.2,7.4,5.0,99.0,'11111222,11111222,11144222' 
DISL,ioos:station:DISL:MBLA:1,2007-10-02T18:30:00Z,30.4367,-88.0117,14.2,8.0,16.0,99.0,'11111222,11111222,11144222' 
DISL,ioos:station:DISL:MBLA:1,2007-10-02T19:00:00Z,30.4367,-88.0117,14.2,7.2,15.0,99.0,'11111222,11111222,11144222' 
DISL,ioos:station:DISL:MBLA:1,2007-10-02T19:30:00Z,30.4367,-88.0117,14.2,7.5,17.0,99.0,'11111222,11111222,11144222' 
DISL,ioos:station:DISL:MBLA:1,2007-10-02T20:00:00Z,30.4367,-88.0117,14.2,7.5,11.0,99.0,'11111222,11111222,11144222' 
DISL,ioos:station:DISL:MBLA:1,2007-10-02T20:30:00Z,30.4367,-88.0117,14.2,5.5,22.0,99.0,'11111222,11111222,11144222' 
DISL,ioos:station:DISL:MBLA:1,2007-10-02T21:00:00Z,30.4367,-88.0117,14.2,4.8,16.0,99.0,'11111222,11111222,11144222' 
DISL,ioos:station:DISL:MBLA:1,2007-10-02T21:30:00Z,30.4367,-88.0117,14.2,4.6,11.0,99.0,'11111222,11111222,11144222' 
DISL,ioos:station:DISL:MBLA:1,2007-10-02T22:00:00Z,30.4367,-88.0117,14.2,6.1,34.0,99.0,'11111222,11111222,11144222' 
DISL,ioos:station:DISL:MBLA:1,2007-10-02T22:30:00Z,30.4367,-88.0117,14.2,6.3,44.0,99.0,'11111222,11111222,11144222' 
DISL,ioos:station:DISL:MBLA:1,2007-10-02T23:00:00Z,30.4367,-88.0117,14.2,6.4,47.0,99.0,'11111222,11111222,11144222' 
DISL,ioos:station:DISL:MBLA:1,2007-10-02T23:30:00Z,30.4367,-88.0117,14.2,5.5,46.0,99.0,'11111222,11111222,11144222' 
DISL,ioos:station:DISL:MBLA:1,2007-10-03T00:00:00Z,30.4367,-88.0117,14.2,5.1,40.0,99.0,'11111222,11111222,11144222' 
DISL,ioos:station:DISL:MBLA:1,2007-10-03T00:30:00Z,30.4367,-88.0117,14.2,5.5,33.0,99.0,'11111222,11111222,11144222' 
DISL,ioos:station:DISL:MBLA:1,2007-10-03T01:00:00Z,30.4367,-88.0117,14.2,5.7,29.0,99.0,'11111222,11111222,11144222' 
DISL,ioos:station:DISL:MBLA:1,2007-10-03T01:30:00Z,30.4367,-88.0117,14.2,6.1,37.0,99.0,'11111222,11111222,11144222' 
DISL,ioos:station:DISL:MBLA:1,2007-10-03T02:00:00Z,30.4367,-88.0117,14.2,6.0,35.0,99.0,'11111222,11111222,11144222' 
DISL,ioos:station:DISL:MBLA:1,2007-10-03T02:30:00Z,30.4367,-88.0117,14.2,6.4,32.0,99.0,'11111222,11111222,11144222' 
DISL,ioos:station:DISL:MBLA:1,2007-10-03T03:00:00Z,30.4367,-88.0117,14.2,6.3,33.0,99.0,'11111222,11111222,11144222' 
DISL,ioos:station:DISL:MBLA:1,2007-10-03T03:30:00Z,30.4367,-88.0117,14.2,7.5,37.0,99.0,'11111222,11111222,11144222' 
DISL,ioos:station:DISL:MBLA:1,2007-10-03T04:00:00Z,30.4367,-88.0117,14.2,7.6,39.0,99.0,'11111222,11111222,11144222' 
DISL,ioos:station:DISL:MBLA:1,2007-10-03T04:30:00Z,30.4367,-88.0117,14.2,8.3,44.0,99.0,'11111222,11111222,11144222' 
DISL,ioos:station:DISL:MBLA:1,2007-10-03T05:00:00Z,30.4367,-88.0117,14.2,8.0,54.0,99.0,'11111222,11111222,11144222' 
DISL,ioos:station:DISL:MBLA:1,2007-10-03T05:30:00Z,30.4367,-88.0117,14.2,8.2,59.0,99.0,'11111222,11111222,11144222' 
DISL,ioos:station:DISL:MBLA:1,2007-10-03T06:00:00Z,30.4367,-88.0117,14.2,8.7,56.0,99.0,'11111222,11111222,11144222' 
DISL,ioos:station:DISL:MBLA:1,2007-10-03T06:30:00Z,30.4367,-88.0117,14.2,9.2,56.0,99.0,'11111222,11111222,11144222' 
DISL,ioos:station:DISL:MBLA:1,2007-10-03T07:00:00Z,30.4367,-88.0117,14.2,9.6,61.0,99.0,'11111222,11111222,11144222' 
DISL,ioos:station:DISL:MBLA:1,2007-10-03T07:30:00Z,30.4367,-88.0117,14.2,9.3,62.0,99.0,'11111222,11111222,11144222' 
DISL,ioos:station:DISL:MBLA:1,2007-10-03T08:00:00Z,30.4367,-88.0117,14.2,10.0,66.0,99.0,'11111222,11111222,11144222' 
DISL,ioos:station:DISL:MBLA:1,2007-10-03T08:30:00Z,30.4367,-88.0117,14.2,9.7,61.0,99.0,'11111222,11111222,11144222' 
DISL,ioos:station:DISL:MBLA:1,2007-10-03T09:00:00Z,30.4367,-88.0117,14.2,9.9,63.0,99.0,'11111222,11111222,11144222' 
DISL,ioos:station:DISL:MBLA:1,2007-10-03T09:30:00Z,30.4367,-88.0117,14.2,9.3,48.0,99.0,'11111222,11111222,11144222' 
DISL,ioos:station:DISL:MBLA:1,2007-10-03T10:00:00Z,30.4367,-88.0117,14.2,9.0,37.0,99.0,'11111222,11111222,11144222' 
DISL,ioos:station:DISL:MBLA:1,2007-10-03T10:30:00Z,30.4367,-88.0117,14.2,9.3,37.0,99.0,'11111222,11111222,11144222' 
DISL,ioos:station:DISL:MBLA:1,2007-10-03T11:00:00Z,30.4367,-88.0117,14.2,9.0,38.0,99.0,'11111222,11111222,11144222' 
DISL,ioos:station:DISL:MBLA:1,2007-10-03T11:30:00Z,30.4367,-88.0117,14.2,9.4,39.0,99.0,'11111222,11111222,11144222' 
DISL,ioos:station:DISL:MBLA:1,2007-10-03T12:00:00Z,30.4367,-88.0117,14.2,8.9,44.0,99.0,'11111222,11111222,11144222' 
DISL,ioos:station:DISL:MBLA:1,2007-10-03T12:30:00Z,30.4367,-88.0117,14.2,7.9,42.0,99.0,'11111222,11111222,11144222' 
DISL,ioos:station:DISL:MBLA:1,2007-10-03T13:00:00Z,30.4367,-88.0117,14.2,8.4,45.0,99.0,'11111222,11111222,11144222' 
DISL,ioos:station:DISL:MBLA:1,2007-10-03T13:30:00Z,30.4367,-88.0117,14.2,7.5,48.0,99.0,'11111222,11111222,11144222' 
DISL,ioos:station:DISL:MBLA:1,2007-10-03T14:00:00Z,30.4367,-88.0117,14.2,7.0,43.0,99.0,'11111222,11111222,11144222' 
DISL,ioos:station:DISL:MBLA:1,2007-10-03T14:30:00Z,30.4367,-88.0117,14.2,7.2,47.0,99.0,'11111222,11111222,11144222' 
DISL,ioos:station:DISL:MBLA:1,2007-10-03T15:00:00Z,30.4367,-88.0117,14.2,7.1,53.0,99.0,'11111222,11111222,11144222' 
DISL,ioos:station:DISL:MBLA:1,2007-10-03T15:30:00Z,30.4367,-88.0117,14.2,7.0,57.0,99.0,'11111222,11111222,11144222' 
DISL,ioos:station:DISL:MBLA:1,2007-10-03T16:00:00Z,30.4367,-88.0117,14.2,6.1,48.0,99.0,'11111222,11111222,11144222' 
DISL,ioos:station:DISL:MBLA:1,2007-10-03T16:30:00Z,30.4367,-88.0117,14.2,5.8,64.0,99.0,'11111222,11111222,11144222' 
DISL,ioos:station:DISL:MBLA:1,2007-10-03T17:00:00Z,30.4367,-88.0117,14.2,5.2,61.0,99.0,'11111222,11111222,11144222' 
DISL,ioos:station:DISL:MBLA:1,2007-10-03T17:30:00Z,30.4367,-88.0117,14.2,6.1,30.0,99.0,'11111222,11111222,11144222' 
DISL,ioos:station:DISL:MBLA:1,2007-10-03T18:00:00Z,30.4367,-88.0117,14.2,6.3,13.0,99.0,'11111222,11111222,11144222' 
DISL,ioos:station:DISL:MBLA:1,2007-10-03T18:30:00Z,30.4367,-88.0117,14.2,6.4,4.0,99.0,'11111222,11111222,11144222' 
DISL,ioos:station:DISL:MBLA:1,2007-10-03T19:00:00Z,30.4367,-88.0117,14.2,5.2,30.0,99.0,'11111222,11111222,11144222' 
DISL,ioos:station:DISL:MBLA:1,2007-10-03T19:30:00Z,30.4367,-88.0117,14.2,4.5,70.0,99.0,'11111222,11111222,11144222' 
DISL,ioos:station:DISL:MBLA:1,2007-10-03T20:00:00Z,30.4367,-88.0117,14.2,6.2,105.0,99.0,'11111222,11111222,11144222' 
DISL,ioos:station:DISL:MBLA:1,2007-10-03T20:30:00Z,30.4367,-88.0117,14.2,5.6,101.0,99.0,'11111222,11111222,11144222' 
DISL,ioos:station:DISL:MBLA:1,2007-10-03T21:00:00Z,30.4367,-88.0117,14.2,4.0,82.0,99.0,'11111222,11111222,11144222' 
DISL,ioos:station:DISL:MBLA:1,2007-10-03T21:30:00Z,30.4367,-88.0117,14.2,3.6,113.0,99.0,'11111222,11111222,11144222' 
DISL,ioos:station:DISL:MBLA:1,2007-10-03T22:00:00Z,30.4367,-88.0117,14.2,2.3,114.0,99.0,'11111222,11111222,11144222' 
DISL,ioos:station:DISL:MBLA:1,2007-10-03T22:30:00Z,30.4367,-88.0117,14.2,2.4,35.0,99.0,'11111222,11111222,11144222' 
DISL,ioos:station:DISL:MBLA:1,2007-10-03T23:00:00Z,30.4367,-88.0117,14.2,6.6,73.0,99.0,'11111222,11111222,11144222' 
DISL,ioos:station:DISL:MBLA:1,2007-10-03T23:30:00Z,30.4367,-88.0117,14.2,6.3,66.0,99.0,'11111222,11111222,11144222' 
DISL,ioos:station:DISL:MBLA:1,2007-10-04T00:00:00Z,30.4367,-88.0117,14.2,6.0,62.0,99.0,'11111222,11111222,11144222' 
DISL,ioos:station:DISL:MBLA:1,2007-10-04T00:30:00Z,30.4367,-88.0117,14.2,6.0,50.0,99.0,'11111222,11111222,11144222' 
DISL,ioos:station:DISL:MBLA:1,2007-10-04T01:00:00Z,30.4367,-88.0117,14.2,6.1,33.0,99.0,'11111222,11111222,11144222' 
DISL,ioos:station:DISL:MBLA:1,2007-10-04T01:30:00Z,30.4367,-88.0117,14.2,6.8,44.0,99.0,'11111222,11111222,11144222' 
DISL,ioos:station:DISL:MBLA:1,2007-10-04T02:00:00Z,30.4367,-88.0117,14.2,5.8,48.0,99.0,'11111222,11111222,11144222' 
DISL,ioos:station:DISL:MBLA:1,2007-10-04T02:30:00Z,30.4367,-88.0117,14.2,7.7,55.0,99.0,'11111222,11111222,11144222' 
DISL,ioos:station:DISL:MBLA:1,2007-10-04T03:00:00Z,30.4367,-88.0117,14.2,7.1,56.0,99.0,'11111222,11111222,11144222' 
DISL,ioos:station:DISL:MBLA:1,2007-10-04T03:30:00Z,30.4367,-88.0117,14.2,7.2,69.0,99.0,'11111222,11111222,11144222' 
DISL,ioos:station:DISL:MBLA:1,2007-10-04T04:00:00Z,30.4367,-88.0117,14.2,7.2,60.0,99.0,'11111222,11111222,11144222' 
DISL,ioos:station:DISL:MBLA:1,2007-10-04T04:30:00Z,30.4367,-88.0117,14.2,6.8,45.0,99.0,'11111222,11111222,11144222' 
DISL,ioos:station:DISL:MBLA:1,2007-10-04T05:00:00Z,30.4367,-88.0117,14.2,7.1,60.0,99.0,'11111222,11111222,11144222' 
DISL,ioos:station:DISL:MBLA:1,2007-10-04T05:30:00Z,30.4367,-88.0117,14.2,8.2,70.0,99.0,'11111222,11111222,11144222' 
DISL,ioos:station:DISL:MBLA:1,2007-10-04T06:00:00Z,30.4367,-88.0117,14.2,7.4,78.0,99.0,'11111222,11111222,11144222' 
DISL,ioos:station:DISL:MBLA:1,2007-10-04T06:30:00Z,30.4367,-88.0117,14.2,8.2,66.0,99.0,'11111222,11111222,11144222' 
DISL,ioos:station:DISL:MBLA:1,2007-10-04T07:00:00Z,30.4367,-88.0117,14.2,7.8,69.0,99.0,'11111222,11111222,11144222' 
DISL,ioos:station:DISL:MBLA:1,2007-10-04T07:30:00Z,30.4367,-88.0117,14.2,8.2,71.0,99.0,'11111222,11111222,11144222' 
DISL,ioos:station:DISL:MBLA:1,2007-10-04T08:00:00Z,30.4367,-88.0117,14.2,7.9,77.0,99.0,'11111222,11111222,11144222' 
DISL,ioos:station:DISL:MBLA:1,2007-10-04T08:30:00Z,30.4367,-88.0117,14.2,9.0,73.0,99.0,'11111222,11111222,11144222' 
DISL,ioos:station:DISL:MBLA:1,2007-10-04T09:00:00Z,30.4367,-88.0117,14.2,8.7,71.0,99.0,'11111222,11111222,11144222' 
DISL,ioos:station:DISL:MBLA:1,2007-10-04T09:30:00Z,30.4367,-88.0117,14.2,8.4,81.0,99.0,'11111222,11111222,11144222' 
DISL,ioos:station:DISL:MBLA:1,2007-10-04T10:00:00Z,30.4367,-88.0117,14.2,8.5,80.0,99.0,'11111222,11111222,11144222' 
DISL,ioos:station:DISL:MBLA:1,2007-10-04T10:30:00Z,30.4367,-88.0117,14.2,7.7,78.0,99.0,'11111222,11111222,11144222' 
DISL,ioos:station:DISL:MBLA:1,2007-10-04T11:00:00Z,30.4367,-88.0117,14.2,8.7,80.0,99.0,'11111222,11111222,11144222' 
DISL,ioos:station:DISL:MBLA:1,2007-10-04T11:30:00Z,30.4367,-88.0117,14.2,8.2,81.0,99.0,'11111222,11111222,11144222' 
DISL,ioos:station:DISL:MBLA:1,2007-10-04T12:00:00Z,30.4367,-88.0117,14.2,8.5,81.0,99.0,'11111222,11111222,11144222' 
DISL,ioos:station:DISL:MBLA:1,2007-10-04T12:30:00Z,30.4367,-88.0117,14.2,7.4,71.0,99.0,'11111222,11111222,11144222' 
DISL,ioos:station:DISL:MBLA:1,2007-10-04T13:00:00Z,30.4367,-88.0117,14.2,8.0,69.0,99.0,'11111222,11111222,11144222' 
DISL,ioos:station:DISL:MBLA:1,2007-10-04T13:30:00Z,30.4367,-88.0117,14.2,7.8,80.0,99.0,'11111222,11111222,11144222' 
DISL,ioos:station:DISL:MBLA:1,2007-10-04T14:00:00Z,30.4367,-88.0117,14.2,3.7,96.0,99.0,'11111222,11111222,11144222' 
DISL,ioos:station:DISL:MBLA:1,2007-10-04T14:30:00Z,30.4367,-88.0117,14.2,6.7,77.0,99.0,'11111222,11111222,11144222' 
DISL,ioos:station:DISL:MBLA:1,2007-10-04T15:00:00Z,30.4367,-88.0117,14.2,6.5,87.0,99.0,'11111222,11111222,11144222' 
DISL,ioos:station:DISL:MBLA:1,2007-10-04T15:30:00Z,30.4367,-88.0117,14.2,7.7,97.0,99.0,'11111222,11111222,11144222' 
DISL,ioos:station:DISL:MBLA:1,2007-10-04T16:00:00Z,30.4367,-88.0117,14.2,7.9,90.0,99.0,'11111222,11111222,11144222' 
DISL,ioos:station:DISL:MBLA:1,2007-10-04T16:30:00Z,30.4367,-88.0117,14.2,8.2,102.0,99.0,'11111222,11111222,11144222' 
DISL,ioos:station:DISL:MBLA:1,2007-10-04T17:00:00Z,30.4367,-88.0117,14.2,8.5,112.0,99.0,'11111222,11111222,11144222' 
DISL,ioos:station:DISL:MBLA:1,2007-10-04T17:30:00Z,30.4367,-88.0117,14.2,8.0,109.0,99.0,'11111222,11111222,11144222' 
DISL,ioos:station:DISL:MBLA:1,2007-10-04T18:00:00Z,30.4367,-88.0117,14.2,7.6,122.0,99.0,'11111222,11111222,11144222' 
DISL,ioos:station:DISL:MBLA:1,2007-10-04T18:30:00Z,30.4367,-88.0117,14.2,7.4,121.0,99.0,'11111222,11111222,11144222' 
DISL,ioos:station:DISL:MBLA:1,2007-10-04T19:00:00Z,30.4367,-88.0117,14.2,8.7,126.0,99.0,'11111222,11111222,11144222' 
DISL,ioos:station:DISL:MBLA:1,2007-10-04T19:30:00Z,30.4367,-88.0117,14.2,7.2,124.0,99.0,'11111222,11111222,11144222' 
DISL,ioos:station:DISL:MBLA:1,2007-10-04T20:00:00Z,30.4367,-88.0117,14.2,8.3,126.0,99.0,'11111222,11111222,11144222' 
DISL,ioos:station:DISL:MBLA:1,2007-10-04T20:30:00Z,30.4367,-88.0117,14.2,7.1,129.0,99.0,'11111222,11111222,11144222' 
DISL,ioos:station:DISL:MBLA:1,2007-10-04T21:00:00Z,30.4367,-88.0117,14.2,6.5,129.0,99.0,'11111222,11111222,11144222' 
DISL,ioos:station:DISL:MBLA:1,2007-10-04T21:30:00Z,30.4367,-88.0117,14.2,6.7,119.0,99.0,'11111222,11111222,11144222' 
DISL,ioos:station:DISL:MBLA:1,2007-10-04T22:00:00Z,30.4367,-88.0117,14.2,7.1,128.0,99.0,'11111222,11111222,11144222' 
DISL,ioos:station:DISL:MBLA:1,2007-10-04T22:30:00Z,30.4367,-88.0117,14.2,7.4,125.0,99.0,'11111222,11111222,11144222' 
DISL,ioos:station:DISL:MBLA:1,2007-10-04T23:00:00Z,30.4367,-88.0117,14.2,7.7,126.0,99.0,'11111222,11111222,11144222' 
DISL,ioos:station:DISL:MBLA:1,2007-10-04T23:30:00Z,30.4367,-88.0117,14.2,6.3,112.0,99.0,'11111222,11111222,11144222' 
DISL,ioos:station:DISL:MBLA:1,2007-10-05T00:00:00Z,30.4367,-88.0117,14.2,6.2,112.0,99.0,'11111222,11111222,11144222' 
DISL,ioos:station:DISL:MBLA:1,2007-10-05T00:30:00Z,30.4367,-88.0117,14.2,5.9,107.0,99.0,'11111222,11111222,11144222' 
DISL,ioos:station:DISL:MBLA:1,2007-10-05T01:00:00Z,30.4367,-88.0117,14.2,5.1,117.0,99.0,'11111222,11111222,11144222' 
DISL,ioos:station:DISL:MBLA:1,2007-10-05T01:30:00Z,30.4367,-88.0117,14.2,4.9,117.0,99.0,'11111222,11111222,11144222' 
DISL,ioos:station:DISL:MBLA:1,2007-10-05T02:00:00Z,30.4367,-88.0117,14.2,4.7,111.0,99.0,'11111222,11111222,11144222' 
DISL,ioos:station:DISL:MBLA:1,2007-10-05T02:30:00Z,30.4367,-88.0117,14.2,4.0,96.0,99.0,'11111222,11111222,11144222' 
DISL,ioos:station:DISL:MBLA:1,2007-10-05T03:00:00Z,30.4367,-88.0117,14.2,3.5,101.0,99.0,'11111222,11111222,11144222' 
DISL,ioos:station:DISL:MBLA:1,2007-10-05T03:30:00Z,30.4367,-88.0117,14.2,3.5,105.0,99.0,'11111222,11111222,11144222' 
DISL,ioos:station:DISL:MBLA:1,2007-10-05T04:00:00Z,30.4367,-88.0117,14.2,4.3,95.0,99.0,'11111222,11111222,11144222' 
DISL,ioos:station:DISL:MBLA:1,2007-10-05T04:30:00Z,30.4367,-88.0117,14.2,5.0,99.0,99.0,'11111222,11111222,11144222' 
DISL,ioos:station:DISL:MBLA:1,2007-10-05T05:00:00Z,30.4367,-88.0117,14.2,5.9,131.0,99.0,'11111222,11111222,11144222' 